Location: Zagreb
(45.8000°N, 16.0000°E)
Time: 15:17:57
(UTC+02:00)

Transit 2A Rocket - Pass Details

Date: 09 August 2022
Orbit: 593 x 907 km, 66.7° (Epoch: 25 September)

Event Time Altitude Azimuth Distance (km) Brightness Sun altitude
Rises 19:24:56 0° 193° (SSW) 3,034 8.1 7.2°
Reaches altitude 10° 19:27:24 10° 186° (S) 2,076 7.2 6.8°
Maximum altitude 19:31:46 42° 116° (ESE) 909 5.1 6.1°
Drops below altitude 10° 19:35:55 10° 46° (NE) 1,967 6.9 5.4°
Sets 19:38:12 0° 39° (NE) 2,855 7.7 5.0°
